Dubrovnik, Croatia

7:31 PM CET on November 22, 2017 (GMT +0100)
Cilipi

Weather History for LDDU - November, 2013

Change the Weather History Date:

Thursday, November 7, 2013

  Actual Average (LYTV) Record (LYTV)
Temperature  
Mean Temperature 62 °F -  
Max Temperature 71 °F 63 °F 72 °F (2013)
Min Temperature 53 °F 44 °F 33 °F (2003)
Degree Days  
Heating Degree Days 3    
Growing Degree Days 12 (Base 50)    
Moisture  
Dew Point 48 °F    
Average Humidity 63    
Maximum Humidity 94    
Minimum Humidity 33    
Precipitation  
Precipitation 0.00 in - - ()
Sea Level Pressure  
Sea Level Pressure 30.01 in    
Wind  
Wind Speed 5 mph ()    
Max Wind Speed 11 mph    
Max Gust Speed -    
Visibility 16.9 miles    
Events      
Averages and records for this station are not official NWS values.
T = Trace of Precipitation, MM = Missing Value Source: Averaged Metar Reports

Daily Weather History Graph

Daily Weather History Graph

Search for Another Location

Airport or City:

Trip Planner

Search our weather history database for the weather conditions in past years. The results will help you decide how hot, cold, wet, or windy it might be!

Date:

Astronomy

Nov. 07, 2013 Rise Set
Actual Time 6:28 AM CET 4:32 PM CET
Civil Twilight 5:58 AM CET 5:02 PM CET
Nautical Twilight 5:24 AM CET 5:35 PM CET
Astronomical Twilight 4:51 AM CET 6:08 PM CET
Moon 10:22 AM CET (11/7) 8:22 PM CET (11/7)
Length of Visible Light 11h 03m
Length of Day
10h 04m
Waxing Crescent, 20% of the Moon is Illuminated
Nov 7
Waxing Crescent
Nov 10
First Quarter
Nov 17
Full
Nov 25
Last Quarter
Dec 3
New

Hourly Weather History & Observations

Time (CET) Temp. Dew Point Humidity Pressure Visibility Wind Dir Wind Speed Gust Speed Precip Events Conditions
12:00 AM 62.6 °F 41.0 °F 45% 29.86 in - Variable 9.2 mph - N/A   Clear
12:30 AM 62.6 °F 41.0 °F 45% 29.89 in - NNE 3.5 mph - N/A   Clear
1:00 AM 62 °F 40 °F 33% 29.88 in 19 mi North 6.7 mph - -  
1:00 AM 62.6 °F 41.0 °F 45% 29.89 in - Variable 8.1 mph - N/A   Clear
1:30 AM 60.8 °F 41.0 °F 48% 29.89 in - Variable 6.9 mph - N/A   Clear
2:00 AM 62.6 °F 41.0 °F 45% 29.92 in - Variable 5.8 mph - N/A   Clear
2:30 AM 64.4 °F 39.2 °F 40% 29.92 in - East 9.2 mph - N/A   Clear
3:00 AM 62.6 °F 41.0 °F 45% 29.92 in - Variable 9.2 mph - N/A   Clear
3:30 AM 60.8 °F 39.2 °F 45% 29.92 in - Variable 8.1 mph - N/A   Clear
4:00 AM 60 °F 40 °F 36% 29.93 in 19 mi North 11.2 mph - -  
4:00 AM 60.8 °F 39.2 °F 45% 29.92 in - NNE 9.2 mph - N/A   Clear
4:30 AM 55.4 °F 41.0 °F 58% 29.92 in - Variable 5.8 mph - N/A   Clear
5:00 AM 59.0 °F 41.0 °F 51% 29.92 in - NE 10.4 mph - N/A   Clear
5:30 AM 55.4 °F 41.0 °F 58% 29.95 in - NNE 6.9 mph - N/A   Clear
6:00 AM 59.0 °F 37.4 °F 45% 29.95 in - NE 5.8 mph - N/A   Clear
6:30 AM 57.2 °F 37.4 °F 48% 29.95 in - NE 5.8 mph - N/A   Clear
7:00 AM 55 °F 42 °F 50% 29.99 in 19 mi ESE 6.7 mph - -  
7:00 AM 53.6 °F 42.8 °F 67% 29.98 in - East 6.9 mph - N/A   Clear
7:30 AM 55.4 °F 44.6 °F 67% 29.98 in - ENE 6.9 mph - N/A   Clear
8:00 AM 57.2 °F 46.4 °F 67% 29.98 in - East 5.8 mph - N/A   Clear
8:30 AM 60.8 °F 48.2 °F 63% 30.01 in - Calm Calm - N/A   Clear
9:00 AM 66.2 °F 46.4 °F 49% 30.01 in - WNW 4.6 mph - N/A   Clear
9:30 AM 66.2 °F 42.8 °F 43% 30.04 in - WNW 4.6 mph - N/A   Clear
10:00 AM 69 °F 48 °F 36% 30.03 in 19 mi Calm Calm - -  
10:00 AM 69.8 °F 48.2 °F 46% 30.04 in - Calm Calm - N/A   Clear
10:30 AM 68.0 °F 48.2 °F 49% 30.04 in - Variable 2.3 mph - N/A   Clear
11:00 AM 69.8 °F 51.8 °F 53% 30.04 in - Variable 2.3 mph - N/A   Clear
11:30 AM 69.8 °F 51.8 °F 53% 30.04 in - WSW 3.5 mph - N/A   Clear
12:00 PM 68.0 °F 55.4 °F 64% 30.04 in - SSW 4.6 mph - N/A   Clear
12:30 PM 69.8 °F 55.4 °F 60% 30.04 in - Variable 1.2 mph - N/A   Clear
1:00 PM 69 °F 57 °F 57% 30.04 in 19 mi South 4.5 mph - -  
1:00 PM 69.8 °F 55.4 °F 60% 30.04 in - South 5.8 mph - N/A   Clear
1:30 PM 69.8 °F 59.0 °F 68% 30.04 in - South 4.6 mph - N/A   Clear
2:00 PM 68.0 °F 57.2 °F 68% 30.04 in - South 4.6 mph - N/A   Clear
2:30 PM 68.0 °F 57.2 °F 68% 30.04 in - South 5.8 mph - N/A   Clear
3:00 PM 68.0 °F 57.2 °F 68% 30.04 in - South 4.6 mph - N/A   Clear
3:30 PM 68.0 °F 57.2 °F 68% 30.04 in - Variable 1.2 mph - N/A   Clear
4:00 PM 66 °F 58 °F 69% 30.04 in 19 mi West 2.2 mph - -  
4:00 PM 66.2 °F 59.0 °F 78% 30.04 in - WNW 3.5 mph - N/A   Clear
4:30 PM 62.6 °F 57.2 °F 82% 30.04 in - West 3.5 mph - N/A   Clear
5:00 PM 59.0 °F 57.2 °F 94% 30.04 in - Calm Calm - N/A   Clear
5:30 PM 60.8 °F 57.2 °F 88% 30.06 in - Calm Calm - N/A   Clear
6:00 PM 57.2 °F 55.4 °F 94% 30.06 in - Variable 1.2 mph - N/A   Clear
6:30 PM 57.2 °F 53.6 °F 88% 30.06 in - East 3.5 mph - N/A   Clear
7:00 PM 58 °F 54 °F 84% 30.07 in 9 mi North 2.2 mph - -  
7:00 PM 59.0 °F 53.6 °F 82% 30.06 in - NNW 3.5 mph - N/A   Clear
7:30 PM 55.4 °F 51.8 °F 88% 30.06 in - Calm Calm - N/A   Clear
8:00 PM 57.2 °F 50.0 °F 77% 30.06 in - East 5.8 mph - N/A   Clear
8:30 PM 53.6 °F 51.8 °F 94% 30.06 in - Calm Calm - N/A   Clear
9:00 PM 53.6 °F 51.8 °F 94% 30.09 in - East 4.6 mph - N/A   Clear
9:30 PM 53.6 °F 50.0 °F 88% 30.09 in - ESE 4.6 mph - N/A   Clear
10:00 PM 54 °F 47 °F 70% 30.09 in 12 mi East 8.9 mph - -  
10:00 PM 55.4 °F 46.4 °F 72% 30.06 in - East 9.2 mph - N/A   Clear
10:30 PM 55.4 °F 51.8 °F 88% 30.09 in - ESE 4.6 mph - N/A   Clear
11:00 PM 53.6 °F 48.2 °F 82% 30.09 in - East 4.6 mph - N/A   Clear
11:30 PM 57.2 °F 44.6 °F 63% 30.09 in - ESE 6.9 mph - N/A   Clear